Current weather by "City, St" or "zip code"  
 
Advertise Here

Current Conditions: West Memphis, West Memphis Municipal Airport, AR

A Few Clouds


77.0 F

Last Updated on Sep 16 2021, 10:53 pm CDT
Humidity: 74%
Wind Speed: NE 4.6 mph
Barometer 29.97 in
Dewpoint: 68.0 F
Visibility: 10.00 mi
Precip: --
Heat Index: NA
Wind Chill: NA
Current conditions at:

West Memphis, West Memphis Municipal Airport, AR (KAWM)

Lat: 35.13333 Lon: 90.23333

Local Radar Image active severe weather and emergency alerts image image weather storm and storm spotter reports image weather observation monitoring service image
Local
Radar
Active
Alerts
Storm Reports Obs
Monitoring

Sign-up For Email & Text Message Weather Alert Notification Services



Advertise Here

Observation History for West Memphis, West Memphis Municipal Airport, AR


Time Wind
(mph)
Vis
(mi)
Weather Precip (in) Temperature (F) Relative
Humidity
Wind
Chill
(F)
Heat
Index
(F)
Pressure
Air Dwpt altimeter
(in)
sea level
(mb)
Rmks
10:53 pm CDT NE 4.6 10.00 A Few Clouds -- 77.0 68.0 74% NA NA 29.97 1014.2
9:53 pm CDT E 3.5 10.00 Mostly Cloudy -- 79.0 68.0 69% NA NA 29.98 1014.6
8:53 pm CDT E 4.6 10.00 Overcast -- 80.0 68.0 67% NA 83 29.96 1014.1
7:53 pm CDT E 4.6 10.00 Partly Cloudy -- 79.0 68.0 69% NA NA 29.95 1013.7
6:53 pm CDT SE 8.1 10.00 Partly Cloudy -- 81.0 66.9 62% NA 83 29.93 1013.3
5:53 pm CDT E 11.5 10.00 Mostly Cloudy -- 84.0 66.0 55% NA 86 29.93 1013.0
4:53 pm CDT E 10.4 10.00 Partly Cloudy -- 87.0 64.9 48% NA 89 29.92 1012.5
3:53 pm CDT SE 12.7 10.00 Mostly Cloudy -- 88.0 66.0 48% NA 90 29.92 1012.6
2:53 pm CDT E 11.5 10.00 Partly Cloudy -- 87.0 66.0 50% NA 89 29.93 1013.0
1:53 pm CDT E 12.7 G 17.3 10.00 Partly Cloudy -- 88.0 66.9 50% NA 91 29.95 1013.8
12:53 pm CDT E 9.2 10.00 Overcast -- 88.0 66.9 50% NA 91 29.97 1014.4
11:53 am CDT E 10.4 10.00 Mostly Cloudy -- 85.0 68.0 57% NA 88 29.98 1014.8
10:53 am CDT E 8.1 10.00 A Few Clouds -- 82.0 68.0 63% NA 85 29.99 1015.1
9:53 am CDT SE 8.1 10.00 Mostly Cloudy -- 78.0 68.0 71% NA NA 30.00 1015.3
8:53 am CDT E 9.2 10.00 Overcast -- 75.0 69.1 82% NA NA 29.98 1014.9
7:53 am CDT E 5.8 7.00 Mostly Cloudy -- 73.0 69.1 87% NA NA 29.97 1014.6
6:53 am CDT NE 3.5 8.00 Fair -- 70.0 66.9 90% NA NA 29.96 1014.1
5:53 am CDT N 0.0 8.00 Fair -- 71.0 68.0 90% NA NA 29.94 1013.5
4:53 am CDT N 0.0 8.00 Fair -- 72.0 68.0 87% NA NA 29.93 1013.0
3:53 am CDT N 0.0 10.00 Fair -- 73.0 69.1 87% NA NA 29.93 1013.1
2:53 am CDT E 3.5 10.00 Fair -- 71.0 66.9 87% NA NA 29.93 1013.0
1:53 am CDT N 0.0 10.00 Fair -- 73.0 69.1 87% NA NA 29.93 1013.1
12:53 am CDT N 0.0 10.00 Fair -- 73.0 69.1 87% NA NA 29.94 1013.3
11:53 pm CDT N 0.0 10.00 Fair -- 74.0 69.1 85% NA NA 29.94 1013.4

Regional Weather Observation


Jonesboro, Jonesboro Municipal Airport, AR (KJBR)

A Few Clouds
72.0 F

Memphis International Airport, TN (KMEM)

Mostly Cloudy
77.0 F

Millington, Millington Municipal Airport, TN (KNQA)

Fair
73.0 F

Tunica, Tunica Municipal Airport, MS (KUTA)

Partly Cloudy
93.0 F

Blytheville, Blytheville Municipal Airport, AR (KHKA)

A Few Clouds
73.0 F

Newport, Newport Municipal Airport, AR (KM19)

Fair
71.0 F
Advertise Here


Advertise Here